{"data":{"norad_id":81021,"intl_designator":"","name":"UNKNOWN","alt_names":[],"object_type":"UNKNOWN","status":"UNKNOWN","operator":null,"country":null,"launch_date":null,"launch_site_code":null,"launch_vehicle":null,"mission":null,"orbit_class":"UNKNOWN","rcs_meters":null,"size_class":null,"mass_kg":null,"dimensions":null,"purposes":[],"wikipedia_slug":null,"has_3d_model":false,"image_url":null,"decayed_at":null,"tle_current":{"epoch":"2026-09-13T03:35:47.957568Z","epoch_age_seconds":649568,"freshness":"AGED","line1":"1 81021U          26256.14986062  .00001226  00000+0  44809-3 0  9997","line2":"2 81021  74.0397 174.2688 0026395 194.1209 165.9208 14.33855058 25270","mean_motion":14.33855058,"eccentricity":0.0026395,"inclination_deg":74.0397,"raan_deg":174.2688,"arg_perigee_deg":194.1209,"mean_anomaly_deg":165.9208,"bstar":0.00044809,"rev_number":2527,"period_min":100.42856089015,"perigee_km":759.98287512779,"apogee_km":797.76473516817,"semimajor_km":7157.010805148,"source":"CELESTRAK","updated_at":"2026-09-20T09:00:32.382184Z"}}}